Change the Weather History Date:

Saturday, January 11, 2014

  Actual Average Record
Temperature  
Mean Temperature 44 °F 35 °F  
Max Temperature 53 °F 44 °F 71 °F (1928)
Min Temperature 35 °F 26 °F -2 °F (1982)
Degree Days  
Heating Degree Days 21 30  
Month to date heating degree days 387 330  
Since 1 July heating degree days 2052 2066  
Cooling Degree Days 0 0  
Month to date cooling degree days 0 0  
Year to date cooling degree days 0 0  
Moisture  
Dew Point 40 °F    
Average Humidity 77    
Maximum Humidity 100    
Minimum Humidity 54    
Precipitation  
Precipitation 0.67 in 0.09 in 1.17 in (2012)
Month to date precipitation 2.07 1.01  
Year to date precipitation 2.07 1.01  
Sea Level Pressure  
Sea Level Pressure 29.77 in    
Wind  
Wind Speed 5 mph (South)    
Max Wind Speed 18 mph    
Max Gust Speed 23 mph    
Visibility 4 miles    
Events Fog , Rain    
T = Trace of Precipitation, MM = Missing Value Source: NWS Daily Summary

Daily Weather History Graph

Daily Weather History Graph

Search for Another Location

Airport or City:

Trip Planner

Search our weather history database for the weather conditions in past years. The results will help you decide how hot, cold, wet, or windy it might be!

Date:

Astronomy

Jan. 11, 2014 Rise Set
Actual Time 7:30 AM EST 5:13 PM EST
Civil Twilight 7:00 AM EST 5:42 PM EST
Nautical Twilight 6:28 AM EST 6:15 PM EST
Astronomical Twilight 5:56 AM EST 6:47 PM EST
Moon 1:56 PM EST (1/11) 3:33 AM EST (1/11)
Length of Visible Light 10h 41m
Length of Day
9h 43m
Waxing Gibbous, 83% of the Moon is Illuminated
Jan 11
Waxing Gibbous
Jan 15
Full
Jan 24
Last Quarter
Jan 30
New
Feb 6
First Quarter

Hourly Weather History & Observations

Time (EST) Temp. Windchill Dew Point Humidity Pressure Visibility Wind Dir Wind Speed Gust Speed Precip Events Conditions
12:04 AM 35.1 °F - 35.1 °F 100% 30.11 in 3.0 mi Calm Calm - 0.00 in Rain Light Rain
12:19 AM 35.1 °F - 34.0 °F 96% 30.10 in 1.8 mi Calm Calm - 0.01 in Rain Light Rain
12:27 AM 35.1 °F - 34.0 °F 96% 30.09 in 2.0 mi Calm Calm - 0.01 in Rain Light Rain
12:35 AM 35.1 °F - 34.0 °F 96% 30.10 in 1.8 mi Calm Calm - 0.02 in Rain Light Rain
12:53 AM 35.1 °F 32.2 °F 35.1 °F 100% 30.09 in 2.0 mi South 3.5 mph - 0.03 in Rain Light Rain
1:04 AM 36.0 °F - 34.0 °F 93% 30.06 in 3.0 mi Calm Calm - 0.00 in Rain Light Rain
1:11 AM 36.0 °F - 35.1 °F 97% 30.06 in 2.5 mi Calm Calm - 0.00 in Rain Light Rain
1:25 AM 36.0 °F - 35.1 °F 97% 30.04 in 3.0 mi Calm Calm - 0.00 in Rain Light Rain
1:53 AM 36.0 °F - 35.1 °F 97% 30.04 in 4.0 mi Calm Calm - 0.00 in Rain Light Rain
2:05 AM 36.0 °F - 35.1 °F 97% 30.02 in 4.0 mi Calm Calm - 0.00 in Rain Light Rain
2:45 AM 37.0 °F - 35.1 °F 93% 30.02 in 5.0 mi Calm Calm - 0.00 in Rain Light Rain
2:53 AM 37.0 °F - 36.0 °F 96% 30.02 in 2.5 mi Calm Calm - 0.00 in Rain Light Rain
3:04 AM 37.0 °F - 36.0 °F 96% 30.01 in 1.8 mi Calm Calm - 0.00 in Rain Light Rain
3:53 AM 36.0 °F - 36.0 °F 100% 29.98 in 1.0 mi Calm Calm - 0.00 in Rain Light Rain
4:53 AM 36.0 °F - 36.0 °F 100% 29.93 in 1.2 mi Calm Calm - 0.02 in Rain Light Rain
5:06 AM 36.0 °F - 35.1 °F 97% 29.92 in 0.8 mi Calm Calm - 0.01 in Rain Light Rain
5:21 AM 36.0 °F - 35.1 °F 97% 29.92 in 1.0 mi Calm Calm - 0.02 in Rain Light Rain
5:32 AM 36.0 °F - 36.0 °F 100% 29.90 in 2.0 mi Calm Calm - 0.02 in Rain Light Rain
5:53 AM 37.0 °F - 36.0 °F 96% 29.90 in 2.0 mi Calm Calm - 0.02 in Rain Light Rain
6:00 AM 37.0 °F - 36.0 °F 96% 29.89 in 1.8 mi Calm Calm - 0.01 in Rain Light Rain
6:34 AM 37.0 °F 34.5 °F 36.0 °F 96% 29.87 in 2.0 mi South 3.5 mph - 0.04 in Rain Light Rain
6:41 AM 37.0 °F 34.5 °F 36.0 °F 96% 29.87 in 1.8 mi South 3.5 mph - 0.05 in Rain Light Rain
6:48 AM 37.4 °F - 35.6 °F 93% 29.87 in 1.5 mi Calm Calm - 0.07 in Rain Light Rain
6:53 AM 37.0 °F - 36.0 °F 96% 29.87 in 1.8 mi Calm Calm - 0.07 in Rain Light Rain
7:00 AM 37.0 °F - 36.0 °F 96% 29.86 in 1.2 mi Calm Calm - 0.00 in Rain Light Rain
7:07 AM 37.0 °F - 36.0 °F 96% 29.86 in 1.2 mi Calm Calm - 0.00 in Rain Light Rain
7:27 AM 37.0 °F - 36.0 °F 96% 29.85 in 1.2 mi Calm Calm - 0.05 in Rain Light Rain
7:49 AM 37.4 °F 34.9 °F 35.6 °F 93% 29.82 in 1.8 mi SE 3.5 mph - 0.06 in   Overcast
7:53 AM 37.0 °F - 37.0 °F 100% 29.83 in 2.0 mi Calm Calm - 0.06 in   Overcast
8:03 AM 37.9 °F - 37.0 °F 97% 29.82 in 2.0 mi Calm Calm - N/A   Overcast
8:11 AM 37.0 °F - 37.0 °F 100% 29.81 in 1.0 mi Calm Calm - 0.00 in Rain Light Rain
8:18 AM 37.9 °F 35.5 °F 37.0 °F 97% 29.81 in 0.8 mi SSW 3.5 mph - 0.00 in Rain Light Rain
8:27 AM 37.9 °F - 37.0 °F 97% 29.80 in 1.5 mi Calm Calm - 0.00 in   Overcast
8:43 AM 37.0 °F - 36.0 °F 96% 29.79 in 0.5 mi Calm Calm - 0.00 in Fog Fog
8:53 AM 37.9 °F 34.4 °F 37.0 °F 97% 29.83 in 0.8 mi SW 4.6 mph - 0.00 in Rain Light Rain
9:06 AM 37.9 °F - 37.0 °F 97% 29.80 in 1.0 mi Calm Calm - 0.07 in Rain Rain
9:14 AM 37.9 °F 35.5 °F 37.0 °F 97% 29.79 in 1.8 mi South 3.5 mph - 0.09 in Rain Rain
9:46 AM 39.0 °F 32.8 °F 37.0 °F 93% 29.76 in 0.5 mi South 9.2 mph - 0.12 in Fog , Rain Light Rain
9:53 AM 39.9 °F 32.9 °F 39.0 °F 97% 29.76 in 1.8 mi South 11.5 mph - 0.13 in Rain Light Rain
9:55 AM 39.9 °F 32.5 °F 39.0 °F 97% 29.75 in 3.0 mi South 12.7 mph - 0.00 in Rain Rain
9:58 AM 39.9 °F 33.4 °F 39.0 °F 97% 29.73 in 3.0 mi South 10.4 mph - 0.01 in Rain Rain
10:01 AM 39.9 °F 34.5 °F 39.0 °F 97% 29.72 in 2.5 mi SSE 8.1 mph - 0.02 in Fog , Rain Rain
10:08 AM 39.9 °F 36.7 °F 39.0 °F 97% 29.73 in 0.5 mi Variable 4.6 mph - 0.03 in Fog , Rain Rain
10:30 AM 41.0 °F 38.0 °F 41.0 °F 100% 29.73 in 2.5 mi West 4.6 mph - 0.03 in   Overcast
10:53 AM 43.0 °F 38.2 °F 41.0 °F 93% 29.70 in 2.0 mi West 8.1 mph - 0.03 in   Overcast
11:00 AM 43.0 °F 38.2 °F 42.1 °F 97% 29.71 in 2.0 mi SSW 8.1 mph - 0.00 in Rain Light Rain
11:24 AM 43.0 °F 36.8 °F 42.1 °F 97% 29.68 in 2.0 mi South 11.5 mph - 0.02 in Rain Light Rain
11:51 AM 44.6 °F 39.2 °F 44.6 °F 100% 29.65 in 2.0 mi South 10.4 mph - 0.08 in Rain Light Rain
11:53 AM 44.1 °F 38.1 °F 44.1 °F 100% 29.66 in 2.0 mi South 11.5 mph - 0.08 in Rain Light Rain
12:07 PM 45.0 °F 39.3 °F 44.1 °F 97% 29.64 in 4.0 mi South 11.5 mph - 0.01 in Rain Light Rain
12:12 PM 45.0 °F 39.3 °F 43.0 °F 93% 29.63 in 1.8 mi South 11.5 mph - 0.06 in Rain Rain
12:23 PM 44.1 °F 38.6 °F 43.0 °F 96% 29.62 in 3.0 mi South 10.4 mph - 0.08 in Rain Rain
12:39 PM 45.0 °F 42.6 °F 44.1 °F 97% 29.63 in 6.0 mi South 4.6 mph - 0.10 in Rain Light Rain
12:53 PM 45.0 °F 41.2 °F 44.1 °F 97% 29.62 in 5.0 mi SSE 6.9 mph - 0.10 in Rain Light Rain
1:05 PM 46.0 °F 44.8 °F 45.0 °F 96% 29.60 in 8.0 mi SSW 3.5 mph - 0.00 in Rain Light Rain
1:53 PM 48.9 °F - 46.9 °F 93% 29.59 in 9.0 mi SSW 6.9 mph - 0.02 in Rain Light Rain
2:36 PM 50.0 °F - 48.0 °F 93% 29.56 in 5.0 mi South 10.4 mph - 0.05 in Rain Light Rain
2:53 PM 50.0 °F - 48.9 °F 96% 29.56 in 5.0 mi South 10.4 mph - 0.07 in Rain Light Rain
3:00 PM 50.0 °F - 48.9 °F 96% 29.56 in 10.0 mi South 10.4 mph - 0.01 in Rain Light Rain
3:53 PM 50.0 °F - 48.0 °F 93% 29.54 in 10.0 mi South 12.7 mph - 0.04 in   Overcast
4:11 PM 50.0 °F - 48.0 °F 93% 29.55 in 10.0 mi South 17.3 mph - N/A   Overcast
4:19 PM 50.0 °F - 48.0 °F 93% 29.53 in 10.0 mi South 17.3 mph - N/A   Overcast
4:53 PM 50.0 °F - 50.0 °F 100% 29.48 in 9.0 mi SW 5.8 mph - N/A   Overcast
5:09 PM 50.0 °F - 48.9 °F 96% 29.52 in 2.5 mi SW 8.1 mph - N/A   Overcast
5:28 PM 50.0 °F - 48.9 °F 96% 29.50 in 4.0 mi SSW 13.8 mph - N/A   Mostly Cloudy
5:31 PM 50.0 °F - 48.9 °F 96% 29.50 in 4.0 mi South 15.0 mph - N/A   Mostly Cloudy
5:39 PM 50.0 °F - 48.9 °F 96% 29.47 in 4.0 mi South 11.5 mph - N/A   Mostly Cloudy
5:53 PM 50.0 °F - 48.9 °F 96% 29.49 in 10.0 mi SSW 10.4 mph - N/A   Clear
6:53 PM 50.0 °F - 48.0 °F 93% 29.49 in 10.0 mi South 10.4 mph - N/A   Clear
7:53 PM 53.1 °F - 48.9 °F 86% 29.50 in 10.0 mi SSW 9.2 mph - N/A   Clear
8:53 PM 51.1 °F - 48.0 °F 89% 29.53 in 10.0 mi SSW 6.9 mph - N/A   Mostly Cloudy
9:53 PM 51.1 °F - 44.1 °F 77% 29.56 in 10.0 mi Calm Calm - 0.00 in   Overcast
10:53 PM 52.0 °F - 36.0 °F 54% 29.56 in 10.0 mi Variable 4.6 mph - N/A   Partly Cloudy
11:53 PM 50.0 °F - 33.1 °F 52% 29.59 in 10.0 mi Variable 5.8 mph - N/A   Scattered Clouds